Content
SEND FEEDBACK

Daily
Averages
Monthly
Summary
United States of America

COOKEVILLE, TENNESSEE


Home > North America > United States > Tennessee
Elevation: 317 meters     Latitude: 36 08N     Longitude: 085 30W

WEATHER
 
SELECT A DAY
Number of Records: 216,840;   Date Range: 1/1/95 - 9/19/14
 
SHARE

PRINT THIS DATA

[ ← Previous Day ]
WEATHER ALMANAC - 31 JANUARY, 2013
[ Next Day → ]
[ °F ]   °C
Weather ElementAverageHighLow
Temperature0.1 °C3.9 °C (10:53 pm)-2.2 °C (6:53 am)
Dewpoint-5.3 °C-1 °C (11:15 pm)-8 °C (6:38 am)
Humidity67.9 %89 % (11:53 pm)51 % (2:53 pm)
Barometer1015.6 hPa1018.6 hPa (11:53 pm)1010.5 hPa (12:53 am)
Wind Speed18.2 km/h37 km/h (11:53 pm)
Wind Gust51.8 km/h (11:53 pm)
Weather ElementAverage
Visibility13.7 km
Wind DirectionWSW (235.4 °)

Weather ElementTotal
Precipitation0.51 mm
Heating Degree Days17.5 (Base 18.3)
Averaged from 35 records on 31 January, 2013
WEATHER CONDITIONS BREAKOUT
WIND DIRECTION BREAKOUT
WEATHER BY HOUR - 31 JANUARY, 2013
[ °F ]   °C
Local TimeTemperatureDewpointHumidityBarometerVisibilityWind DirectionWind SpeedGust SpeedPrecipitationEventsConditions
12:53 AM-1.1 °C-5 °C75 %1010.5 hPa16.1 kmWNW (290°)20.4 km/h33.3 km/hOvercast
1:53 AM-1.1 °C-5.6 °C72 %1011.5 hPa16.1 kmWest (270°)20.4 km/h40.7 km/h0 mmOvercast
2:36 AM-1 °C-7 °C64 %1011.5 hPa16.1 kmWest (280°)20.4 km/h40.7 km/hOvercast
2:53 AM-1.1 °C-6.7 °C66 %1012.2 hPa16.1 kmWNW (290°)25.9 km/h42.6 km/hOvercast
3:53 AM-1.7 °C-6.1 °C72 %1012.2 hPa16.1 kmWest (270°)16.7 km/h29.6 km/hOvercast
4:30 AM-2 °C-7 °C69 %1012.2 hPa16.1 kmWest (280°)14.8 km/h29.6 km/hOvercast
4:53 AM-1.7 °C-6.7 °C69 %1013.2 hPa16.1 kmWest (280°)16.7 km/h29.6 km/hOvercast
5:53 AM-1.7 °C-6.7 °C69 %1013.5 hPa16.1 kmWest (260°)18.5 km/h33.3 km/hOvercast
6:38 AM-2 °C-8 °C64 %1013.9 hPa16.1 kmWest (270°)13 km/h29.6 km/hOvercast
6:53 AM-2.2 °C-7.8 °C66 %1014.9 hPa16.1 kmWest (260°)20.4 km/h35.2 km/hOvercast
7:33 AM-2 °C-7 °C69 %1014.6 hPa16.1 kmVariable9.3 km/hOvercast
7:53 AM-1.7 °C-6.7 °C69 %1016.3 hPa16.1 kmWSW (250°)14.8 km/hOvercast
8:11 AM-2 °C-7 °C69 %1015.2 hPa16.1 kmWSW (250°)11.1 km/hOvercast
8:50 AM-2 °C-7 °C69 %1015.9 hPa16.1 kmWest (260°)22.2 km/h37 km/hOvercast
8:53 AM-1.7 °C-7.2 °C67 %1016.9 hPa16.1 kmWest (260°)14.8 km/h37 km/hOvercast
9:09 AM-2 °C-7 °C69 %1015.9 hPa16.1 kmWest (280°)16.7 km/h33.3 km/hOvercast
9:53 AM-1.7 °C-6.1 °C72 %1017.9 hPa16.1 kmVariable11.1 km/h31.5 km/hOvercast
10:53 AM-0.6 °C-6.7 °C64 %1018.3 hPa16.1 kmWSW (250°)24.1 km/h35.2 km/hMostly Cloudy
11:53 AM0 °C-6.1 °C64 %1018.3 hPa16.1 kmWest (280°)22.2 km/h40.7 km/hScattered Clouds
12:53 PM1.7 °C-6.7 °C54 %1017.6 hPa16.1 kmWest (260°)18.5 km/h33.3 km/hPartly Cloudy
1:53 PM2.8 °C-6.1 °C52 %1017.3 hPa16.1 kmWest (270°)14.8 km/h29.6 km/hPartly Cloudy
2:53 PM3.3 °C-6.1 °C51 %1017.3 hPa16.1 kmWest (260°)20.4 km/h31.5 km/hPartly Cloudy
3:53 PM2.8 °C-6.1 °C52 %1016.9 hPa16.1 kmWest (260°)18.5 km/h31.5 km/hPartly Cloudy
4:53 PM2.2 °C-6.1 °C55 %1016.9 hPa16.1 kmSW (230°)11.1 km/hClear
6:53 PM1.7 °C-5 °C61 %1017.9 hPa16.1 kmVariable7.4 km/hOvercast
7:53 PM2.2 °C-5 °C59 %1017.3 hPa16.1 kmSW (220°)13 km/hMostly Cloudy
8:53 PM2.2 °C-4.4 °C62 %1016.6 hPa16.1 kmVariable11.1 km/hOvercast
9:53 PM2.8 °C-4.4 °C59 %1016.6 hPa16.1 kmSW (230°)9.3 km/hOvercast
10:53 PM3.9 °C-2.8 °C62 %1016.9 hPa16.1 kmWest (280°)29.6 km/h48.1 km/hOvercast
11:07 PM2 °C-2 °C75 %1016.6 hPa4 kmWest (280°)31.5 km/h50.1 km/h0 mmSnowLight Snow
11:15 PM1 °C-1 °C87 %1016.6 hPa1.9 kmWest (270°)24.1 km/h50.1 km/h0 mmSnowLight Snow
11:22 PM1 °C-1 °C87 %1016.6 hPa1.3 kmWest (270°)22.2 km/h35.2 km/h0 mmSnowLight Snow
11:29 PM1 °C-1 °C87 %1016.6 hPa1.6 kmWest (280°)14.8 km/h31.5 km/h0 mmSnowLight Snow
11:42 PM1 °C-1 °C87 %1016.9 hPa1.6 kmWest (270°)18.5 km/h25.9 km/h0.25 mmSnowLight Snow
11:53 PM0.6 °C-1.1 °C89 %1018.6 hPa1.3 kmWest (280°)37 km/h51.8 km/h0.25 mmSnowLight Snow
Hourly data recorded from KCSV, located 0 kilometers away from Cookeville, Tennessee







STORIES FROM OUR PARTNERS